World > North America > United States > Minnesota

Hourly Dorset, MN Regional Weather

Feedback E-mail the Weather

Quick WX

Dorset, MN Weather Maps

°F °C°F °C
Dorset Weather Map
UTC Time: 6/29/2022, 12:33
Your Time:

Dorset, MN Regional Weather

Expires:202206291300;;383299
ASUS43 KMPX 291210
RWRMN 
WEATHER ROUNDUP FOR MINNESOTA
NATIONAL WEATHER SERVICE TWIN CITIES/CHANHASSEN MN
700 AM CDT WED JUN 29 2022


NOTE: "FAIR" INDICATES FEW OR NO CLOUDS BELOW 12,000 FEET WITH NO
SIGNIFICANT WEATHER AND/OR OBSTRUCTIONS TO VISIBILITY. N/A MEANS
CURRENT SKY AND/OR WEATHER CONDITIONS ARE NOT AVAILABLE.


MNZ001>005-007-008-013>017-022>024-027-028-291300-
   Northwest Minnesota   
  
CITY           SKY/WX    TMP DP  RH WIND       PRES   REMARKS
BEMIDJI        PTSUNNY   50  50 100 SE5       30.12S                  
ROSEAU           N/A     54  46  76 CALM      30.10S                  
WARROAD        PTSUNNY   54  48  82 SE3       30.11F                  
THIEF RVR FALL PTSUNNY   53  48  83 SE6       30.10S                  
CROOKSTON      PTSUNNY   57  50  77 SE9       30.07F                  
FOSSTON          N/A    N/A N/A N/A MISG        N/A                   
DETROIT LAKES  MOSUNNY   57  50  77 SE10      30.10R                  
MOORHEAD         N/A     57  52  82 SE3       30.07F                  
PARK RAPIDS    MOSUNNY   53  47  79 SE6       30.12S                  
MAHNOMEN       FAIR      55  47  76 SE8       30.09S                  
$$

SKY/WX - Weather  TMP - Temperature  DP - Dew Point  RH - Humidity
WIND - Wind Direction/Speed PRES - Barometric Pressure VSB - Visibility
WCI - Wind Chill Index E13G22 Wind - East Wind 13 mph/Gusts of 22 mph

Trending Headlines

Dorset Radar Loop



Dorset Quick Facts


National Two Day Weather Forecast


E-mail the Dorset Weather Forecast

Voice your opinion or tell us about page issues...